VK1ET-13 Weather Reports


Display with metric or nautical units.
time (UTC)temp
F
wind
direction
speed
MPH
gust
MPH
rain 1hr
in
rain 24hr
in
rain mn
in
humidity
%
barometer
mb
20260901211018 58 305 5.0 12.0 0.00 0.00 0.00 78 1015.4
20260901210022 58 318 8.0 13.0 0.00 0.00 0.00 78 1015.4
20260901205034 57 314 6.0 13.0 0.00 0.00 0.00 79 1015.2
20260901204031 57 304 5.0 8.0 0.00 0.00 0.00 81 1015.3
20260901203034 56 312 4.0 8.0 0.00 0.00 0.00 83 1015.1
20260901202036 56 141 1.0 3.0 0.00 0.00 0.00 82 1015.2
20260901201019 57 7 1.0 3.0 0.00 0.00 0.00 81 1015.0
20260901200023 57 332 2.0 5.0 0.00 0.00 0.00 80 1015.0
20260901195026 58 317 4.0 7.0 0.00 0.00 0.00 80 1014.9
20260901194029 58 302 4.0 6.0 0.00 0.00 0.00 80 1014.8
20260901193033 58 308 3.0 8.0 0.00 0.00 0.00 80 1014.7
20260901192037 57 297 3.0 8.0 0.00 0.00 0.00 80 1014.7
20260901191027 58 314 4.0 11.0 0.00 0.00 0.00 80 1014.6
20260901190024 57 326 3.0 7.0 0.00 0.00 0.00 81 1014.7
20260901185027 57 330 2.0 9.0 0.00 0.00 0.00 81 1014.6
20260901184032 57 354 3.0 7.0 0.00 0.00 0.00 81 1014.5
20260901183035 57 16 3.0 7.0 0.00 0.00 0.00 81 1014.5
20260901182018 57 344 2.0 6.0 0.00 0.00 0.00 83 1015.0
20260901181035 57 358 3.0 7.0 0.00 0.00 0.00 84 1015.2
20260901180023 57 23 3.0 8.0 0.00 0.00 0.00 82 1015.1
20260901175030 57 5 3.0 6.0 0.00 0.00 0.00 82 1014.9
20260901174030 57 360 2.0 6.0 0.00 0.00 0.00 82 1014.9
20260901173034 57 17 2.0 6.0 0.00 0.00 0.00 82 1015.0
20260901172024 57 24 3.0 7.0 0.00 0.00 0.00 83 1014.9
20260901171020 58 41 2.0 6.0 0.00 0.00 0.00 80 1014.8
20260901170030 57 359 2.0 5.0 0.00 0.00 0.00 80 1015.9
20260901165026 57 27 1.0 5.0 0.00 0.00 0.00 81 1016.0
20260901164034 57 341 1.0 3.0 0.00 0.00 0.00 81 1016.0
20260901163022 57 321 1.0 2.0 0.00 0.00 0.00 81 1015.9
20260901162029 57 340 1.0 4.0 0.00 0.00 0.00 81 1016.0
20260901161038 58 2 2.0 4.0 0.00 0.00 0.00 79 1015.9
20260901160034 59 200 1.0 3.0 0.00 0.00 0.00 73 1015.7
20260901142041 57 25 2.0 5.0 0.00 0.00 0.00 83 1016.3
20260901140534 58 340 3.0 9.0 0.00 0.00 0.00 82 1016.7
20260901135523 57 329 3.0 5.0 0.00 0.00 0.00 83 1016.4
20260901133527 56 340 2.0 4.0 0.00 0.00 0.00 84 1016.6
20260901132532 56 357 1.0 4.0 0.00 0.00 0.00 84 1016.7
20260901131521 56 358 2.0 6.0 0.00 0.00 0.00 85 1017.1
20260901130528 56 15 1.0 3.0 0.00 0.00 0.00 84 1017.3
20260901125533 56 7 1.0 3.0 0.00 0.00 0.00 83 1017.6
20260901124517 57 358 1.0 2.0 0.00 0.00 0.00 82 1017.6
20260901123526 57 342 0.0 3.0 0.00 0.00 0.00 81 1017.8
20260901122034 57 316 1.0 2.0 0.00 0.00 0.00 82 1018.0
20260901121020 57 344 1.0 2.0 0.00 0.00 0.00 81 1018.0
20260901120024 57 334 1.0 3.0 0.00 0.00 0.00 80 1018.3
20260901115036 58 351 1.0 2.0 0.00 0.00 0.00 78 1018.3
20260901082033 64 320 2.0 4.0 0.00 0.00 0.00 62 1019.2
20260901081033 64 299 3.0 10.0 0.00 0.00 0.00 60 1019.0
20260901080021 64 307 4.0 7.0 0.00 0.00 0.00 59 1019.0
20260901075023 65 305 5.0 10.0 0.00 0.00 0.00 58 1019.0
20260901074026 65 290 4.0 10.0 0.00 0.00 0.00 56 1019.0
20260901073031 65 304 5.0 11.0 0.00 0.00 0.00 55 1019.0
20260901072037 66 305 5.0 11.0 0.00 0.00 0.00 53 1019.1
20260901071037 67 282 7.0 11.0 0.00 0.00 0.00 51 1018.9
20260901070533 67 319 8.0 12.0 0.00 0.00 0.00 51 1019.0
20260901064531 68 297 6.0 12.0 0.00 0.00 0.00 48 1019.1
20260901063025 68 288 5.0 11.0 0.00 0.00 0.00 50 1019.3
20260901062032 68 284 6.0 9.0 0.00 0.00 0.00 49 1019.4
20260901060519 68 291 6.0 17.0 0.00 0.00 0.00 48 1019.4
20260901055523 68 282 6.0 15.0 0.00 0.00 0.00 48 1019.4
20260901054527 68 291 9.0 17.0 0.00 0.00 0.00 47 1019.4
20260901053538 68 289 6.0 11.0 0.00 0.00 0.00 48 1019.5
20260901052547 68 266 6.0 11.0 0.00 0.00 0.00 47 1019.5
20260901051520 69 278 11.0 17.0 0.00 0.00 0.00 46 1019.6
20260901051029 69 328 12.0 16.0 0.00 0.00 0.00 45 1019.6
20260901050951 69 292 10.0 21.0 0.00 0.00 0.00 46 1019.9
20260901043027 70 256 6.0 9.0 0.00 0.00 0.00 42 1019.8
20260901042952 69 268 8.0 15.0 0.00 0.00 0.00 44 1019.9
20260901033521 69 292 10.0 19.0 0.00 0.00 0.00 42 1020.8
20260901032524 69 290 11.0 18.0 0.00 0.00 0.00 42 1020.8
20260901031531 68 273 11.0 17.0 0.00 0.00 0.00 43 1021.0
20260901030031 68 287 10.0 19.0 0.00 0.00 0.00 43 1021.4
20260901025018 68 274 9.0 21.0 0.00 0.00 0.00 42 1021.5
20260901024025 68 278 8.0 18.0 0.00 0.00 0.00 43 1021.6
20260901023032 68 283 10.0 20.0 0.00 0.00 0.00 41 1021.9
20260901022018 67 270 11.0 21.0 0.00 0.00 0.00 44 1021.9
20260901021025 68 255 9.0 17.0 0.00 0.00 0.00 46 1022.1
20260901020045 68 297 9.0 20.0 0.00 0.00 0.00 47 1022.4
20260901015018 67 295 10.0 17.0 0.00 0.00 0.00 53 1022.6
20260901014025 66 323 9.0 19.0 0.00 0.00 0.00 58 1022.7
20260901013032 66 317 8.0 15.0 0.00 0.00 0.00 59 1022.7
20260901012019 66 317 8.0 18.0 0.00 0.00 0.00 60 1023.1
20260901011027 65 329 7.0 15.0 0.00 0.00 0.00 62 1023.2
20260901010032 64 319 7.0 14.0 0.00 0.00 0.00 63 1023.4
20260901005016 65 314 5.0 10.0 0.00 0.00 0.00 63 1023.5
20260901004023 64 330 5.0 11.0 0.00 0.00 0.00 64 1023.7
20260901003031 63 323 5.0 11.0 0.00 0.00 0.00 65 1023.8
20260901002036 62 343 4.0 9.0 0.00 0.00 0.00 66 1023.8
20260901001021 62 329 5.0 12.0 0.00 0.00 0.00 67 1024.0
20260901000030 61 324 5.0 11.0 0.00 0.00 0.00 69 1024.2
20260831235043 60 314 4.0 11.0 0.00 0.00 0.00 70 1024.2
20260831234022 59 328 5.0 9.0 0.00 0.00 0.00 71 1024.5
20260831233030 59 345 3.0 5.0 0.00 0.00 0.00 73 1024.6
20260831232018 57 357 3.0 6.0 0.00 0.00 0.00 75 1024.8
20260831231024 56 5 3.0 6.0 0.00 0.00 0.00 77 1024.9
20260831230031 55 4 3.0 6.0 0.00 0.00 0.00 79 1025.1
20260831225018 55 2 3.0 6.0 0.00 0.00 0.00 80 1025.2
20260831224026 54 354 4.0 6.0 0.00 0.00 0.00 81 1025.3
20260831223034 53 4 2.0 5.0 0.00 0.00 0.00 83 1025.3
20260831222021 51 14 2.0 5.0 0.00 0.00 0.00 86 1025.3
20260831221028 51 3 3.0 5.0 0.00 0.00 0.00 87 1025.2
20260831220043 50 358 2.0 4.0 0.00 0.00 0.00 87 1025.2
20260831215023 49 291 1.0 3.0 0.00 0.00 0.00 92 1025.3
20260831214038 48 88 1.0 2.0 0.00 0.00 0.00 97 1025.2
20260831213032 48 332 0.0 2.0 0.00 0.00 0.00 97 1025.5
20260831212026 47 2 1.0 3.0 0.00 0.00 0.00 98 1025.3